Location: Bagnara
(41.0500°N, 14.7833°E)
Time: 21:30:53
(UTC+00:00)

ATLAS 5 CENTAUR R/B - Pass Details

Date: 28 October 2021
Orbit: 497 x 1159 km, 63.4° (Epoch: 25 November)

Event Time Altitude Azimuth Distance (km) Brightness Sun altitude
Rises 16:32:05 0° 272° (W) 2,645 6.7 -6.4°
Reaches altitude 10° 16:35:30 10° 305° (NW) 1,842 4.7 -7.0°
Maximum altitude 16:37:07 12° 329° (NNW) 1,767 4.2 -7.3°
Drops below altitude 10° 16:38:48 10° 352° (N) 1,951 4.1 -7.6°
Sets 16:42:43 0° 23° (NNE) 3,017 4.8 -8.4°
